Regional Weather Roundup
Issued by NWS

Home | Current Version | Previous Version | Text Only | Print | Product List | Glossary On
Versions: 1 2 3 4 5 6 7 8 9 10 11 12 13 14 15 16 17 18 19 20 21 22 23 24 25 26 27 28 29 30 31 32 33 34 35 36 37 38 39 40 41 42 43 44 45 46 47 48 49 50
000
ASUS43 KTOP 230759
RWRKS

WEATHER ROUNDUP FOR KANSAS
NATIONAL WEATHER SERVICE GOODLAND KS
200 AM CST MON JAN 23 2017

NOTE:  "FAIR" INDICATES FEW OR NO CLOUDS BELOW 12,000 FEET WITH NO
SIGNIFICANT WEATHER AND/OR OBSTRUCTIONS TO VISIBILITY.

KSZ001>006-013>018-027>032-041>047-230900-
NORTHWEST KANSAS

CITY           SKY/WX    TMP DP  RH WIND       PRES   REMARKS
GOODLAND       CLOUDY    32  22  66 SW7       29.84F
HAYS           CLEAR     25  23  92 CALM      29.89F
HILL CITY      CLOUDY    29  26  89 NW5       29.88F
RUSSELL        CLEAR     25  23  92 SW7       29.88F
$$

KSZ061>065-074>080-084>089-230900-
SOUTHWEST KANSAS

CITY           SKY/WX    TMP DP  RH WIND       PRES   REMARKS
DODGE CITY     CLOUDY    30  25  81 SW6       29.90F
ELKHART          N/A     33  18  54 SW7         N/A
GARDEN CITY    CLOUDY    29  24  82 SW5       29.89F
GREAT BEND     CLEAR     26  24  92 SW5       29.90F
LIBERAL          N/A     28  21  74 SW6       29.91F
$$

KSZ066>073-081>083-090>101-230900-
SOUTHEAST KANSAS

CITY           SKY/WX    TMP DP  RH WIND       PRES   REMARKS
CHANUTE        CLEAR     31  29  92 W5        29.94R
COFFEYVILLE    CLEAR     33  31  92 NW3       29.97R
HUTCHINSON     CLEAR     30  27  88 NW3       29.93S
MEDICINE LODGE   N/A     27  24  89 N5        29.92F
NEWTON         CLEAR     29  29 100 W5        29.92F
PARSONS        CLEAR     30  28  92 CALM      29.96R
WICHITA INTL   CLEAR     29  27  92 S3        29.93S
WICHITA JABRA  CLEAR     33  30  88 W6        29.92F
WINFIELD       CLEAR     32  30  92 CALM      29.95F
$$

KSZ007>012-019>026-033>040-048>060-102>105-230900-
NORTHEAST KANSAS

CITY           SKY/WX    TMP DP  RH WIND       PRES   REMARKS
CONCORDIA      CLEAR     29  26  89 SW5       29.90S
EMPORIA        CLEAR     28  27  96 W6        29.93R
LAWRENCE       CLEAR     27  27 100 CALM      29.91F FOG
MANHATTAN      CLEAR     24  22  91 CALM      29.93R
OLATHE IND     CLEAR     32  30  92 NW6       29.90F
OLATHE EXE     CLEAR     32  31  96 CALM      29.89F
SALINA           N/A    N/A N/A N/A MISG        N/A
TOPEKA BILLARD PTCLDY    29  26  89 CALM      29.92R
TOPEKA FORBES  CLEAR     30  28  92 W6        29.92R
$$



USA.gov is the U.S. government's official web portal to all federal, state and local government web resources and services.